TimeEDT,TemperatureF,Dew PointF,Humidity,Sea Level PressureIn,VisibilityMPH,Wind Direction,Wind SpeedMPH,Gust SpeedMPH,PrecipitationIn,Events,Conditions,WindDirDegrees,DateUTC
12:17 AM,74.3,66.2,76,30.01,10.0,WSW,4.6,-,N/A,,Clear,240,2013-07-07 04:17:00
12:37 AM,73.8,65.8,76,30.01,10.0,West,3.5,-,N/A,,Clear,260,2013-07-07 04:37:00
12:57 AM,73.4,65.1,75,30.02,10.0,West,3.5,-,N/A,,Clear,260,2013-07-07 04:57:00
1:17 AM,72.7,64.8,76,30.01,10.0,Calm,Calm,-,N/A,,Scattered Clouds,0,2013-07-07 05:17:00
1:37 AM,72.5,64.4,76,30.01,10.0,Calm,Calm,-,N/A,,Scattered Clouds,0,2013-07-07 05:37:00
1:57 AM,71.6,64.2,77,30.00,10.0,Calm,Calm,-,N/A,,Clear,0,2013-07-07 05:57:00
2:17 AM,70.0,64.6,83,30.00,10.0,Calm,Calm,-,N/A,,Clear,0,2013-07-07 06:17:00
2:37 AM,69.1,65.1,87,29.99,10.0,Calm,Calm,-,N/A,,Clear,0,2013-07-07 06:37:00
2:57 AM,69.8,64.9,84,29.99,10.0,Calm,Calm,-,N/A,,Clear,0,2013-07-07 06:57:00
3:17 AM,69.8,64.9,84,29.99,10.0,SW,3.5,-,N/A,,Clear,220,2013-07-07 07:17:00
3:37 AM,70.0,65.3,85,29.99,10.0,Calm,Calm,-,N/A,,Scattered Clouds,0,2013-07-07 07:37:00
3:57 AM,70.5,65.3,83,29.98,10.0,Calm,Calm,-,N/A,,Scattered Clouds,0,2013-07-07 07:57:00
4:17 AM,69.8,65.3,86,29.98,10.0,Calm,Calm,-,N/A,,Mostly Cloudy,0,2013-07-07 08:17:00
4:37 AM,70.0,65.3,85,29.98,10.0,Calm,Calm,-,N/A,,Mostly Cloudy,0,2013-07-07 08:37:00
4:57 AM,69.6,65.3,86,29.99,10.0,Calm,Calm,-,N/A,,Light Drizzle,0,2013-07-07 08:57:00
5:17 AM,69.8,65.7,87,29.99,10.0,SW,3.5,-,N/A,,Overcast,230,2013-07-07 09:17:00
5:37 AM,70.2,65.3,85,29.99,10.0,Calm,Calm,-,N/A,,Overcast,0,2013-07-07 09:37:00
5:56 AM,70.7,65.3,83,29.99,10.0,Calm,Calm,-,N/A,,Overcast,0,2013-07-07 09:56:00
6:17 AM,70.2,65.3,85,29.99,10.0,Calm,Calm,-,N/A,,Overcast,0,2013-07-07 10:17:00
6:37 AM,69.8,65.3,86,30.00,10.0,Calm,Calm,-,N/A,,Overcast,0,2013-07-07 10:37:00
6:57 AM,70.2,65.5,85,30.00,10.0,Calm,Calm,-,N/A,,Overcast,0,2013-07-07 10:57:00
7:17 AM,70.3,65.7,85,30.00,7.0,WSW,3.5,-,N/A,,Overcast,240,2013-07-07 11:17:00
7:36 AM,70.7,65.8,85,30.00,7.0,WSW,3.5,-,N/A,,Overcast,240,2013-07-07 11:36:00
7:57 AM,70.7,66.2,86,30.01,7.0,Calm,Calm,-,N/A,,Overcast,0,2013-07-07 11:57:00
8:17 AM,70.9,66.2,85,30.01,7.0,WSW,5.8,-,N/A,,Overcast,240,2013-07-07 12:17:00
8:36 AM,71.8,66.4,83,30.01,7.0,SSW,4.6,-,N/A,,Overcast,210,2013-07-07 12:36:00
8:57 AM,71.8,66.6,84,30.00,7.0,WSW,4.6,-,N/A,,Overcast,240,2013-07-07 12:57:00
9:17 AM,72.7,66.9,82,30.01,7.0,SW,4.6,-,N/A,,Overcast,230,2013-07-07 13:17:00
9:36 AM,73.2,66.9,81,30.01,7.0,WSW,5.8,-,N/A,,Mostly Cloudy,250,2013-07-07 13:36:00
9:57 AM,74.7,67.3,78,30.01,10.0,WSW,4.6,-,N/A,,Mostly Cloudy,250,2013-07-07 13:57:00
10:17 AM,75.2,66.6,74,30.01,10.0,SW,6.9,-,N/A,,Mostly Cloudy,230,2013-07-07 14:17:00
10:37 AM,76.3,66.6,72,30.01,10.0,SW,5.8,-,N/A,,Mostly Cloudy,230,2013-07-07 14:37:00
10:57 AM,76.8,67.6,73,30.01,10.0,SW,3.5,-,N/A,,Overcast,230,2013-07-07 14:57:00
11:17 AM,77.2,67.6,72,30.01,10.0,South,4.6,-,N/A,,Mostly Cloudy,180,2013-07-07 15:17:00
11:37 AM,77.7,68.2,72,30.01,10.0,WSW,4.6,-,N/A,,Mostly Cloudy,250,2013-07-07 15:37:00
11:57 AM,78.1,67.1,69,30.01,10.0,WSW,4.6,-,N/A,,Overcast,240,2013-07-07 15:57:00
12:17 PM,79.9,66.7,64,30.01,10.0,Calm,Calm,-,N/A,,Overcast,0,2013-07-07 16:17:00
12:37 PM,80.1,67.3,65,30.00,10.0,Calm,Calm,-,N/A,,Scattered Clouds,0,2013-07-07 16:37:00
12:57 PM,80.1,67.6,66,30.00,10.0,SSW,3.5,-,N/A,,Scattered Clouds,210,2013-07-07 16:57:00
1:17 PM,80.8,66.9,63,29.99,10.0,South,6.9,-,N/A,,Clear,190,2013-07-07 17:17:00
1:37 PM,81.5,66.2,60,29.99,10.0,South,6.9,-,N/A,,Clear,180,2013-07-07 17:37:00
1:57 PM,82.2,66.0,58,29.98,10.0,SW,6.9,-,N/A,,Scattered Clouds,230,2013-07-07 17:57:00
2:17 PM,82.6,64.8,55,29.98,10.0,SW,4.6,-,N/A,,Clear,230,2013-07-07 18:17:00
2:37 PM,82.8,67.5,60,29.97,10.0,South,6.9,-,N/A,,Clear,180,2013-07-07 18:37:00
2:57 PM,83.7,69.6,62,29.97,10.0,South,9.2,-,N/A,,Scattered Clouds,180,2013-07-07 18:57:00
3:17 PM,81.7,68.2,63,29.96,10.0,South,6.9,-,N/A,,Scattered Clouds,170,2013-07-07 19:17:00
3:37 PM,81.5,68.9,65,29.97,10.0,South,8.1,-,N/A,,Mostly Cloudy,180,2013-07-07 19:37:00
3:57 PM,81.1,68.9,66,29.96,10.0,South,8.1,-,N/A,,Overcast,170,2013-07-07 19:57:00
4:17 PM,81.3,67.8,63,29.96,10.0,SW,9.2,-,N/A,,Overcast,220,2013-07-07 20:17:00
4:37 PM,82.2,63.7,53,29.95,10.0,SW,8.1,-,N/A,,Scattered Clouds,220,2013-07-07 20:37:00
4:57 PM,81.1,66.4,61,29.96,10.0,SSE,8.1,-,N/A,,Clear,160,2013-07-07 20:57:00
5:17 PM,81.3,67.3,62,29.96,10.0,South,12.7,16.1,N/A,,Clear,190,2013-07-07 21:17:00
5:37 PM,80.4,66.2,62,29.96,10.0,South,9.2,-,N/A,,Clear,180,2013-07-07 21:37:00
5:57 PM,79.9,67.5,66,29.95,10.0,South,6.9,-,N/A,,Clear,170,2013-07-07 21:57:00
6:17 PM,80.2,66.7,63,29.95,10.0,South,5.8,-,N/A,,Scattered Clouds,180,2013-07-07 22:17:00
6:37 PM,80.6,67.6,65,29.95,10.0,SW,5.8,-,N/A,,Clear,230,2013-07-07 22:37:00
6:57 PM,80.2,67.8,66,29.95,10.0,SW,3.5,-,N/A,,Clear,220,2013-07-07 22:57:00
7:17 PM,80.1,67.6,66,29.96,10.0,SW,4.6,-,N/A,,Scattered Clouds,220,2013-07-07 23:17:00
7:37 PM,79.7,67.5,66,29.96,10.0,SW,4.6,-,N/A,,Scattered Clouds,230,2013-07-07 23:37:00
7:57 PM,79.5,66.2,64,29.96,10.0,WSW,4.6,-,N/A,Rain,Light Rain,250,2013-07-07 23:57:00
8:17 PM,78.8,66.2,65,29.97,10.0,WSW,5.8,-,N/A,Rain,Light Rain,250,2013-07-08 00:17:00
8:37 PM,78.8,66.6,66,29.97,10.0,WSW,6.9,-,N/A,,Scattered Clouds,240,2013-07-08 00:37:00
8:57 PM,78.6,66.4,66,29.97,10.0,WSW,6.9,-,N/A,,Clear,250,2013-07-08 00:57:00
9:17 PM,77.7,66.7,69,29.98,10.0,WSW,5.8,-,N/A,,Clear,250,2013-07-08 01:17:00
9:37 PM,77.4,65.3,66,29.98,10.0,WSW,5.8,-,N/A,,Clear,250,2013-07-08 01:37:00
9:56 PM,77.0,65.3,67,29.99,10.0,WSW,4.6,-,N/A,,Clear,250,2013-07-08 01:56:00
10:17 PM,76.1,65.5,70,29.99,10.0,WSW,3.5,-,N/A,,Clear,250,2013-07-08 02:17:00
10:37 PM,75.7,65.3,70,30.00,10.0,Calm,Calm,-,N/A,,Clear,0,2013-07-08 02:37:00
10:57 PM,74.7,65.5,73,30.00,10.0,West,3.5,-,N/A,,Mostly Cloudy,270,2013-07-08 02:57:00
11:17 PM,74.5,65.7,74,29.99,10.0,Calm,Calm,-,N/A,,Overcast,0,2013-07-08 03:17:00
11:37 PM,74.5,66.2,75,30.00,10.0,Calm,Calm,-,N/A,,Overcast,0,2013-07-08 03:37:00
11:56 PM,74.7,65.3,73,29.99,10.0,Calm,Calm,-,N/A,,Overcast,0,2013-07-08 03:56:00